Time,TemperatureF,DewpointF,PressureIn,WindDirection,WindDirectionDegrees,WindSpeedMPH,WindSpeedGustMPH,Humidity,HourlyPrecipIn,Conditions,Clouds,dailyrainin,SoftwareType,DateUTC
2013-07-19 00:02:00,79.8,70.8,29.61,SW,218,0.0,14.0,74,0.00,,---,0.01,VWS V14.00,2013-07-19 05:02:00,
2013-07-19 00:07:00,79.7,70.7,29.61,SSE,157,3.0,10.0,74,0.00,,---,0.00,VWS V14.00,2013-07-19 05:07:00,
2013-07-19 00:12:00,79.7,70.7,29.61,SSE,155,3.0,10.0,74,0.00,,---,0.00,VWS V14.00,2013-07-19 05:12:00,
2013-07-19 00:17:00,79.7,70.7,29.61,SW,227,7.0,10.0,74,0.00,,---,0.00,VWS V14.00,2013-07-19 05:17:00,
2013-07-19 00:22:00,79.7,70.3,29.61,South,178,7.0,14.0,73,0.00,,---,0.00,VWS V14.00,2013-07-19 05:22:00,
2013-07-19 00:27:00,79.7,70.3,29.61,South,189,6.0,14.0,73,0.00,,---,0.00,VWS V14.00,2013-07-19 05:27:00,
2013-07-19 00:32:00,79.7,70.7,29.61,East,101,2.0,14.0,74,0.00,,---,0.00,VWS V14.00,2013-07-19 05:32:00,
2013-07-19 00:37:00,79.6,70.6,29.61,WNW,287,6.0,6.0,74,0.00,,---,0.00,VWS V14.00,2013-07-19 05:37:00,
2013-07-19 00:42:00,79.6,70.6,29.61,SW,229,1.0,7.0,74,0.00,,---,0.00,VWS V14.00,2013-07-19 05:42:00,
2013-07-19 00:47:00,79.5,70.5,29.61,SW,223,4.0,11.0,74,0.00,,---,0.00,VWS V14.00,2013-07-19 05:47:00,
2013-07-19 00:52:00,79.4,70.4,29.61,SE,137,4.0,10.0,74,0.00,,---,0.00,VWS V14.00,2013-07-19 05:52:00,
2013-07-19 00:57:00,79.4,70.4,29.61,WSW,237,2.0,10.0,74,0.00,,---,0.00,VWS V14.00,2013-07-19 05:57:00,
2013-07-19 01:02:00,79.3,70.3,29.60,South,173,1.0,11.0,74,0.00,,---,0.00,VWS V14.00,2013-07-19 06:02:00,
2013-07-19 01:07:00,79.2,70.2,29.60,SSW,207,1.0,9.0,74,0.00,,---,0.00,VWS V14.00,2013-07-19 06:07:00,
2013-07-19 01:12:00,79.1,70.1,29.60,SE,144,3.0,10.0,74,0.00,,---,0.00,VWS V14.00,2013-07-19 06:12:00,
2013-07-19 01:17:00,79.0,70.0,29.60,South,169,6.0,11.0,74,0.00,,---,0.00,VWS V14.00,2013-07-19 06:17:00,
2013-07-19 01:22:00,78.9,70.3,29.59,SE,138,6.0,8.0,75,0.00,,---,0.00,VWS V14.00,2013-07-19 06:22:00,
2013-07-19 01:27:00,78.9,70.3,29.58,South,170,5.0,12.0,75,0.00,,---,0.00,VWS V14.00,2013-07-19 06:27:00,
2013-07-19 01:32:00,78.8,70.2,29.58,SSE,158,4.0,13.0,75,0.00,,---,0.00,VWS V14.00,2013-07-19 06:32:00,
2013-07-19 01:37:00,78.7,70.1,29.58,WSW,244,4.0,11.0,75,0.00,,---,0.00,VWS V14.00,2013-07-19 06:37:00,
2013-07-19 01:42:00,78.6,70.0,29.57,South,180,3.0,11.0,75,0.00,,---,0.00,VWS V14.00,2013-07-19 06:42:00,
2013-07-19 01:47:00,78.5,69.9,29.57,SSW,204,0.0,11.0,75,0.00,,---,0.00,VWS V14.00,2013-07-19 06:47:00,
2013-07-19 01:52:00,78.3,69.7,29.57,ESE,119,3.0,6.0,75,0.00,,---,0.00,VWS V14.00,2013-07-19 06:52:00,
2013-07-19 01:57:00,78.2,70.0,29.56,SSE,160,13.0,13.0,76,0.00,,---,0.00,VWS V14.00,2013-07-19 06:57:00,
2013-07-19 02:02:00,78.2,69.6,29.56,SSW,211,4.0,13.0,75,0.00,,---,0.00,VWS V14.00,2013-07-19 07:02:00,
2013-07-19 02:07:00,78.1,69.9,29.55,SW,216,6.0,10.0,76,0.00,,---,0.00,VWS V14.00,2013-07-19 07:07:00,
2013-07-19 02:12:00,78.1,69.9,29.55,South,186,4.0,15.0,76,0.00,,---,0.00,VWS V14.00,2013-07-19 07:12:00,
2013-07-19 02:17:00,78.1,69.9,29.55,SSW,207,7.0,15.0,76,0.00,,---,0.00,VWS V14.00,2013-07-19 07:17:00,
2013-07-19 02:22:00,78.1,69.9,29.55,South,169,4.0,11.0,76,0.00,,---,0.00,VWS V14.00,2013-07-19 07:22:00,
2013-07-19 02:27:00,78.0,69.8,29.55,SSW,211,4.0,11.0,76,0.00,,---,0.00,VWS V14.00,2013-07-19 07:27:00,
2013-07-19 02:32:00,78.0,69.8,29.54,WSW,249,5.0,13.0,76,0.00,,---,0.00,VWS V14.00,2013-07-19 07:32:00,
2013-07-19 02:37:00,78.0,69.8,29.54,WSW,240,0.0,9.0,76,0.00,,---,0.00,VWS V14.00,2013-07-19 07:37:00,
2013-07-19 02:42:00,77.9,69.7,29.54,SW,227,3.0,13.0,76,0.00,,---,0.00,VWS V14.00,2013-07-19 07:42:00,
2013-07-19 02:47:00,78.0,69.8,29.55,SW,221,3.0,13.0,76,0.00,,---,0.00,VWS V14.00,2013-07-19 07:47:00,
2013-07-19 02:52:00,78.0,69.8,29.54,SE,145,5.0,16.0,76,0.00,,---,0.00,VWS V14.00,2013-07-19 07:52:00,
2013-07-19 02:57:00,78.1,69.5,29.55,SW,232,5.0,16.0,75,0.00,,---,0.00,VWS V14.00,2013-07-19 07:57:00,
2013-07-19 03:02:00,78.0,69.4,29.55,South,180,1.0,16.0,75,0.00,,---,0.00,VWS V14.00,2013-07-19 08:02:00,
2013-07-19 03:07:00,77.9,70.1,29.55,SSE,148,3.0,11.0,77,0.00,,---,0.00,VWS V14.00,2013-07-19 08:07:00,
2013-07-19 03:12:00,76.8,70.2,29.55,WSW,252,4.0,17.0,80,0.00,,---,0.00,VWS V14.00,2013-07-19 08:12:00,
2013-07-19 03:17:00,75.6,70.4,29.55,SSW,208,9.0,17.0,84,0.00,,---,0.00,VWS V14.00,2013-07-19 08:17:00,
2013-07-19 03:22:00,74.6,70.5,29.56,WNW,290,4.0,7.0,87,0.00,,---,0.00,VWS V14.00,2013-07-19 08:22:00,
2013-07-19 03:27:00,73.9,70.5,29.56,West,276,2.0,7.0,89,0.00,,---,0.00,VWS V14.00,2013-07-19 08:27:00,
2013-07-19 03:32:00,73.3,70.2,29.55,SW,219,7.0,10.0,90,0.00,,---,0.00,VWS V14.00,2013-07-19 08:32:00,
2013-07-19 03:38:00,72.9,70.1,29.55,West,263,0.0,3.0,91,0.00,,---,0.00,VWS V14.00,2013-07-19 08:38:00,
2013-07-19 03:43:00,72.7,70.2,29.55,SW,223,3.0,4.0,92,0.00,,---,0.00,VWS V14.00,2013-07-19 08:43:00,
2013-07-19 03:48:00,72.4,70.3,29.56,West,273,0.0,4.0,93,0.00,,---,0.00,VWS V14.00,2013-07-19 08:48:00,
2013-07-19 03:53:00,72.3,70.2,29.58,West,275,4.0,4.0,93,0.00,,---,0.00,VWS V14.00,2013-07-19 08:53:00,
2013-07-19 03:58:00,71.9,69.8,29.56,WSW,250,0.0,5.0,93,0.00,,---,0.00,VWS V14.00,2013-07-19 08:58:00,
2013-07-19 04:03:00,71.6,69.8,29.56,WNW,295,2.0,3.0,94,0.00,,---,0.00,VWS V14.00,2013-07-19 09:03:00,
2013-07-19 04:08:00,71.5,69.7,29.55,WSW,238,4.0,10.0,94,0.00,,---,0.00,VWS V14.00,2013-07-19 09:08:00,
2013-07-19 04:13:00,71.6,69.8,29.55,SW,221,3.0,10.0,94,0.00,,---,0.00,VWS V14.00,2013-07-19 09:13:00,
2013-07-19 04:18:00,71.6,69.8,29.55,SSW,204,0.0,0.0,94,0.00,,---,0.00,VWS V14.00,2013-07-19 09:18:00,
2013-07-19 04:23:00,71.6,69.8,29.55,South,169,0.0,2.0,94,0.00,,---,0.00,VWS V14.00,2013-07-19 09:23:00,
2013-07-19 04:28:00,71.5,70.0,29.55,SW,227,0.0,4.0,95,0.00,,---,0.00,VWS V14.00,2013-07-19 09:28:00,
2013-07-19 04:33:00,71.5,70.0,29.55,West,272,0.0,2.0,95,0.00,,---,0.00,VWS V14.00,2013-07-19 09:33:00,
2013-07-19 04:38:00,71.5,70.0,29.55,West,272,0.0,2.0,95,0.00,,---,0.00,VWS V14.00,2013-07-19 09:38:00,
2013-07-19 04:43:00,71.5,70.0,29.55,West,272,0.0,2.0,95,0.00,,---,0.00,VWS V14.00,2013-07-19 09:43:00,
2013-07-19 04:48:00,71.4,70.2,29.55,West,269,0.0,0.0,96,0.00,,---,0.00,VWS V14.00,2013-07-19 09:48:00,
2013-07-19 04:53:00,71.4,70.2,29.55,West,274,0.0,3.0,96,0.00,,---,0.00,VWS V14.00,2013-07-19 09:53:00,
2013-07-19 04:58:00,71.4,70.2,29.55,SW,230,2.0,4.0,96,0.00,,---,0.00,VWS V14.00,2013-07-19 09:58:00,
2013-07-19 05:03:00,71.4,70.2,29.55,SW,225,0.0,0.0,96,0.00,,---,0.00,VWS V14.00,2013-07-19 10:03:00,
2013-07-19 05:08:00,71.3,70.1,29.55,SE,139,0.0,4.0,96,0.00,,---,0.00,VWS V14.00,2013-07-19 10:08:00,
2013-07-19 05:13:00,71.4,70.2,29.55,West,263,0.0,4.0,96,0.00,,---,0.00,VWS V14.00,2013-07-19 10:13:00,
2013-07-19 05:18:00,71.3,70.1,29.55,SSW,212,3.0,3.0,96,0.00,,---,0.00,VWS V14.00,2013-07-19 10:18:00,
2013-07-19 05:23:00,71.4,70.2,29.55,SSE,148,6.0,6.0,96,0.00,,---,0.00,VWS V14.00,2013-07-19 10:23:00,
2013-07-19 05:28:00,71.4,70.2,29.55,SSW,210,0.0,6.0,96,0.00,,---,0.00,VWS V14.00,2013-07-19 10:28:00,
2013-07-19 05:34:00,71.4,70.2,29.55,South,182,0.0,6.0,96,0.00,,---,0.00,VWS V14.00,2013-07-19 10:34:00,
2013-07-19 05:39:00,71.4,70.2,29.55,SSW,197,3.0,6.0,96,0.00,,---,0.00,VWS V14.00,2013-07-19 10:39:00,
2013-07-19 05:44:00,71.5,70.3,29.55,SSW,201,2.0,6.0,96,0.00,,---,0.00,VWS V14.00,2013-07-19 10:44:00,
2013-07-19 05:49:00,71.5,70.3,29.56,West,264,0.0,5.0,96,0.00,,---,0.00,VWS V14.00,2013-07-19 10:49:00,
2013-07-19 05:54:00,71.5,70.3,29.56,SW,221,0.0,5.0,96,0.00,,---,0.00,VWS V14.00,2013-07-19 10:54:00,
2013-07-19 05:59:00,71.5,70.3,29.56,WSW,246,0.0,5.0,96,0.00,,---,0.00,VWS V14.00,2013-07-19 10:59:00,
2013-07-19 06:04:00,71.5,70.3,29.55,South,189,0.0,4.0,96,0.00,,---,0.00,VWS V14.00,2013-07-19 11:04:00,
2013-07-19 06:09:00,71.5,70.6,29.56,SSE,162,0.0,4.0,97,0.00,,---,0.00,VWS V14.00,2013-07-19 11:09:00,
2013-07-19 06:14:00,71.6,70.7,29.56,SSW,213,0.0,4.0,97,0.00,,---,0.00,VWS V14.00,2013-07-19 11:14:00,
2013-07-19 06:19:00,71.6,70.7,29.56,SSW,211,1.0,2.0,97,0.00,,---,0.00,VWS V14.00,2013-07-19 11:19:00,
2013-07-19 06:24:00,71.6,70.7,29.55,West,267,0.0,2.0,97,0.00,,---,0.00,VWS V14.00,2013-07-19 11:24:00,
2013-07-19 06:29:00,71.6,70.7,29.56,West,279,0.0,3.0,97,0.00,,---,0.00,VWS V14.00,2013-07-19 11:29:00,
2013-07-19 06:34:00,71.7,70.8,29.56,WSW,246,0.0,0.0,97,0.00,,---,0.00,VWS V14.00,2013-07-19 11:34:00,
2013-07-19 06:39:00,71.7,70.8,29.56,SSE,161,0.0,5.0,97,0.00,,---,0.00,VWS V14.00,2013-07-19 11:39:00,
2013-07-19 06:44:00,71.9,71.0,29.57,West,264,3.0,5.0,97,0.00,,---,0.00,VWS V14.00,2013-07-19 11:44:00,
2013-07-19 06:49:00,71.9,71.0,29.57,WSW,242,0.0,0.0,97,0.00,,---,0.00,VWS V14.00,2013-07-19 11:49:00,
2013-07-19 06:54:00,72.0,71.1,29.57,WSW,242,0.0,2.0,97,0.00,,---,0.00,VWS V14.00,2013-07-19 11:54:00,
2013-07-19 06:59:00,72.1,71.2,29.57,South,190,0.0,3.0,97,0.00,,---,0.00,VWS V14.00,2013-07-19 11:59:00,
2013-07-19 07:04:00,72.3,71.4,29.58,South,190,1.0,1.0,97,0.00,,---,0.00,VWS V14.00,2013-07-19 12:04:00,
2013-07-19 07:09:00,72.4,71.5,29.58,SSW,213,2.0,6.0,97,0.00,,---,0.00,VWS V14.00,2013-07-19 12:09:00,
2013-07-19 07:14:00,72.6,71.7,29.58,WSW,247,0.0,6.0,97,0.00,,---,0.00,VWS V14.00,2013-07-19 12:14:00,
2013-07-19 07:19:00,72.8,71.9,29.58,SSW,210,0.0,4.0,97,0.00,,---,0.00,VWS V14.00,2013-07-19 12:19:00,
2013-07-19 07:24:00,72.8,71.6,29.58,SSW,209,0.0,5.0,96,0.00,,---,0.00,VWS V14.00,2013-07-19 12:24:00,
2013-07-19 07:29:00,73.0,71.8,29.58,SSW,201,1.0,5.0,96,0.00,,---,0.00,VWS V14.00,2013-07-19 12:29:00,
2013-07-19 07:34:00,73.2,72.0,29.58,SSW,202,0.0,3.0,96,0.00,,---,0.00,VWS V14.00,2013-07-19 12:34:00,
2013-07-19 07:39:00,73.3,72.1,29.58,South,188,0.0,3.0,96,0.00,,---,0.00,VWS V14.00,2013-07-19 12:39:00,
2013-07-19 07:44:00,73.5,72.0,29.58,SW,217,2.0,4.0,95,0.00,,---,0.00,VWS V14.00,2013-07-19 12:44:00,
2013-07-19 07:49:00,73.9,72.1,29.58,SSE,164,0.0,0.0,94,0.00,,---,0.00,VWS V14.00,2013-07-19 12:49:00,
2013-07-19 07:54:00,74.2,72.1,29.58,SSW,208,4.0,6.0,93,0.00,,---,0.00,VWS V14.00,2013-07-19 12:54:00,
2013-07-19 07:59:00,74.4,71.9,29.58,NW,311,0.0,6.0,92,0.00,,---,0.00,VWS V14.00,2013-07-19 12:59:00,
2013-07-19 08:04:00,74.6,72.1,29.58,WSW,240,1.0,4.0,92,0.00,,---,0.00,VWS V14.00,2013-07-19 13:04:00,
2013-07-19 08:09:00,74.8,72.0,29.58,SW,231,4.0,7.0,91,0.00,,---,0.00,VWS V14.00,2013-07-19 13:09:00,
2013-07-19 08:14:00,74.9,72.1,29.58,West,270,0.0,10.0,91,0.00,,---,0.00,VWS V14.00,2013-07-19 13:14:00,
2013-07-19 08:20:00,75.2,72.4,29.58,South,189,4.0,7.0,91,0.00,,---,0.00,VWS V14.00,2013-07-19 13:20:00,
2013-07-19 08:25:00,75.5,72.4,29.58,WSW,240,2.0,9.0,90,0.00,,---,0.00,VWS V14.00,2013-07-19 13:25:00,
2013-07-19 08:26:00,75.6,72.5,29.58,WSW,244,0.0,9.0,90,0.00,,---,0.00,VWS V14.00,2013-07-19 13:26:00,
2013-07-19 08:31:00,75.8,72.3,29.58,WSW,244,4.0,10.0,89,0.00,,---,0.00,VWS V14.00,2013-07-19 13:31:00,
2013-07-19 08:36:00,75.9,72.1,29.57,South,191,2.0,12.0,88,0.00,,---,0.00,VWS V14.00,2013-07-19 13:36:00,
2013-07-19 08:41:00,76.1,72.3,29.57,SSW,192,3.0,12.0,88,0.00,,---,0.00,VWS V14.00,2013-07-19 13:41:00,
2013-07-19 08:46:00,76.4,72.2,29.57,SW,230,0.0,12.0,87,0.00,,---,0.00,VWS V14.00,2013-07-19 13:46:00,
2013-07-19 08:51:00,76.7,72.2,29.57,SSE,161,5.0,9.0,86,0.00,,---,0.00,VWS V14.00,2013-07-19 13:51:00,
2013-07-19 08:56:00,76.8,71.9,29.57,South,173,1.0,9.0,85,0.00,,---,0.00,VWS V14.00,2013-07-19 13:56:00,
2013-07-19 09:01:00,76.7,71.9,29.57,SSW,208,4.0,9.0,85,0.00,,---,0.00,VWS V14.00,2013-07-19 14:01:00,
2013-07-19 09:06:00,76.7,71.9,29.57,SSW,210,4.0,13.0,85,0.00,,---,0.00,VWS V14.00,2013-07-19 14:06:00,
2013-07-19 09:11:00,76.8,71.9,29.57,SW,226,5.0,13.0,85,0.00,,---,0.00,VWS V14.00,2013-07-19 14:11:00,
2013-07-19 09:16:00,76.8,71.9,29.57,West,272,6.0,13.0,85,0.00,,---,0.00,VWS V14.00,2013-07-19 14:16:00,
2013-07-19 09:21:00,77.0,72.2,29.57,South,171,5.0,11.0,85,0.00,,---,0.00,VWS V14.00,2013-07-19 14:21:00,
2013-07-19 09:26:00,77.2,72.0,29.57,WSW,239,13.0,13.0,84,0.00,,---,0.00,VWS V14.00,2013-07-19 14:26:00,
2013-07-19 09:31:00,77.5,72.3,29.57,South,178,1.0,14.0,84,0.00,,---,0.00,VWS V14.00,2013-07-19 14:31:00,
2013-07-19 09:36:00,77.6,72.0,29.57,SW,236,5.0,17.0,83,0.00,,---,0.00,VWS V14.00,2013-07-19 14:36:00,
2013-07-19 09:41:00,77.7,71.8,29.58,WNW,297,5.0,17.0,82,0.00,,---,0.00,VWS V14.00,2013-07-19 14:41:00,
2013-07-19 09:46:00,77.5,70.8,29.57,West,273,6.0,17.0,80,0.00,,---,0.00,VWS V14.00,2013-07-19 14:46:00,
2013-07-19 09:51:00,77.4,71.1,29.57,SW,219,12.0,12.0,81,0.00,,---,0.00,VWS V14.00,2013-07-19 14:51:00,
2013-07-19 09:56:00,77.8,71.1,29.57,SW,217,3.0,16.0,80,0.00,,---,0.00,VWS V14.00,2013-07-19 14:56:00,
2013-07-19 10:01:00,77.7,70.7,29.59,NW,326,11.0,18.0,79,0.00,,---,0.00,VWS V14.00,2013-07-19 15:01:00,
2013-07-19 10:06:00,75.5,68.2,29.59,NNW,345,1.0,10.0,78,0.00,,---,0.00,VWS V14.00,2013-07-19 15:06:00,
2013-07-19 10:11:00,72.9,67.4,29.59,SW,215,4.0,13.0,83,0.00,,---,0.00,VWS V14.00,2013-07-19 15:11:00,
2013-07-19 10:16:00,71.3,66.9,29.59,SW,221,0.0,13.0,86,0.00,,---,0.00,VWS V14.00,2013-07-19 15:16:00,
2013-07-19 10:21:00,70.8,67.4,29.59,West,267,3.0,3.0,89,0.00,,---,0.00,VWS V14.00,2013-07-19 15:21:00,
2013-07-19 10:26:00,71.0,68.6,29.59,WNW,294,0.0,6.0,92,0.00,,---,0.00,VWS V14.00,2013-07-19 15:26:00,
2013-07-19 10:31:00,71.7,69.6,29.59,WSW,247,0.0,6.0,93,0.00,,---,0.00,VWS V14.00,2013-07-19 15:31:00,
2013-07-19 10:36:00,72.5,70.1,29.59,WSW,247,2.0,5.0,92,0.00,,---,0.00,VWS V14.00,2013-07-19 15:36:00,
2013-07-19 10:41:00,73.1,69.0,29.60,WSW,249,1.0,6.0,87,0.00,,---,0.00,VWS V14.00,2013-07-19 15:41:00,
2013-07-19 10:46:00,73.8,68.3,29.60,West,281,5.0,13.0,83,0.00,,---,0.00,VWS V14.00,2013-07-19 15:46:00,
2013-07-19 10:51:00,74.4,68.6,29.60,SW,219,6.0,7.0,82,0.00,,---,0.00,VWS V14.00,2013-07-19 15:51:00,
2013-07-19 10:56:00,74.5,67.9,29.61,ESE,120,2.0,16.0,80,0.00,,---,0.00,VWS V14.00,2013-07-19 15:56:00,
2013-07-19 11:01:00,74.8,67.5,29.61,South,188,5.0,16.0,78,0.00,,---,0.00,VWS V14.00,2013-07-19 16:01:00,
2013-07-19 11:06:00,75.2,67.5,29.61,SW,217,6.0,7.0,77,0.00,,---,0.00,VWS V14.00,2013-07-19 16:06:00,
2013-07-19 11:11:00,75.6,67.5,29.62,SSW,202,2.0,17.0,76,0.00,,---,0.00,VWS V14.00,2013-07-19 16:11:00,
2013-07-19 11:16:00,76.1,68.0,29.62,SW,224,3.0,17.0,76,0.00,,---,0.00,VWS V14.00,2013-07-19 16:16:00,
2013-07-19 11:21:00,76.6,68.9,29.62,SSW,206,4.0,7.0,77,0.00,,---,0.00,VWS V14.00,2013-07-19 16:21:00,
2013-07-19 11:26:00,76.5,67.6,29.62,NNE,22,7.0,14.0,74,0.00,,---,0.00,VWS V14.00,2013-07-19 16:26:00,
2013-07-19 11:31:00,75.7,66.0,29.63,ENE,74,2.0,14.0,72,0.00,,---,0.00,VWS V14.00,2013-07-19 16:31:00,
2013-07-19 11:36:00,75.5,66.2,29.63,WNW,285,0.0,10.0,73,0.00,,---,0.00,VWS V14.00,2013-07-19 16:36:00,
2013-07-19 11:41:00,75.3,66.4,29.63,West,265,6.0,11.0,74,0.00,,---,0.00,VWS V14.00,2013-07-19 16:41:00,
2013-07-19 11:46:00,75.1,65.5,29.63,WNW,295,3.0,11.0,72,0.00,,---,0.00,VWS V14.00,2013-07-19 16:46:00,
2013-07-19 11:51:00,74.9,66.1,29.63,West,263,10.0,10.0,74,0.00,,---,0.00,VWS V14.00,2013-07-19 16:51:00,
2013-07-19 11:56:00,74.5,66.1,29.64,West,267,5.0,10.0,75,0.00,,---,0.00,VWS V14.00,2013-07-19 16:56:00,
2013-07-19 12:01:00,74.1,65.3,29.64,ENE,78,3.0,11.0,74,0.00,,---,0.00,VWS V14.00,2013-07-19 17:01:00,
2013-07-19 12:06:00,73.8,65.0,29.64,SW,220,5.0,7.0,74,0.00,,---,0.00,VWS V14.00,2013-07-19 17:06:00,
2013-07-19 12:11:00,74.1,66.1,29.64,WSW,248,5.0,11.0,76,0.00,,---,0.00,VWS V14.00,2013-07-19 17:11:00,
2013-07-19 12:16:00,74.8,66.3,29.64,SW,232,5.0,12.0,75,0.00,,---,0.00,VWS V14.00,2013-07-19 17:16:00,
2013-07-19 12:21:00,75.5,66.6,29.64,WNW,287,2.0,11.0,74,0.00,,---,0.00,VWS V14.00,2013-07-19 17:21:00,
2013-07-19 12:26:00,75.8,66.5,29.64,West,275,5.0,11.0,73,0.00,,---,0.00,VWS V14.00,2013-07-19 17:26:00,
2013-07-19 12:31:00,76.0,65.9,29.64,West,269,3.0,11.0,71,0.00,,---,0.00,VWS V14.00,2013-07-19 17:31:00,
2013-07-19 12:36:00,75.9,66.6,29.64,SW,234,5.0,10.0,73,0.00,,---,0.00,VWS V14.00,2013-07-19 17:36:00,
2013-07-19 12:41:00,75.8,65.7,29.64,SSW,207,4.0,11.0,71,0.00,,---,0.00,VWS V14.00,2013-07-19 17:41:00,
2013-07-19 12:46:00,76.0,66.7,29.64,WSW,245,1.0,13.0,73,0.00,,---,0.00,VWS V14.00,2013-07-19 17:46:00,
2013-07-19 12:51:00,76.2,65.7,29.64,SW,225,7.0,16.0,70,0.00,,---,0.00,VWS V14.00,2013-07-19 17:51:00,
2013-07-19 12:56:00,76.4,66.3,29.65,West,269,3.0,23.0,71,0.00,,---,0.00,VWS V14.00,2013-07-19 17:56:00,
2013-07-19 13:01:00,76.7,65.3,29.65,SW,234,4.0,23.0,68,0.00,,---,0.00,VWS V14.00,2013-07-19 18:01:00,
2013-07-19 13:06:00,76.9,65.5,29.65,SSW,204,6.0,15.0,68,0.00,,---,0.00,VWS V14.00,2013-07-19 18:06:00,
2013-07-19 13:11:00,76.6,65.7,29.65,WNW,294,0.0,15.0,69,0.00,,---,0.00,VWS V14.00,2013-07-19 18:11:00,
2013-07-19 13:16:00,76.6,66.1,29.65,WNW,290,1.0,15.0,70,0.00,,---,0.00,VWS V14.00,2013-07-19 18:16:00,
2013-07-19 13:21:00,76.9,66.4,29.66,WNW,284,0.0,6.0,70,0.00,,---,0.00,VWS V14.00,2013-07-19 18:21:00,
2013-07-19 13:26:00,76.6,65.7,29.65,NW,315,0.0,10.0,69,0.00,,---,0.00,VWS V14.00,2013-07-19 18:26:00,
2013-07-19 13:31:00,76.7,65.3,29.66,NW,325,1.0,13.0,68,0.00,,---,0.00,VWS V14.00,2013-07-19 18:31:00,
2013-07-19 13:36:00,76.2,65.3,29.66,NNW,330,2.0,10.0,69,0.00,,---,0.00,VWS V14.00,2013-07-19 18:36:00,
2013-07-19 13:41:00,76.1,65.6,29.66,West,271,0.0,10.0,70,0.00,,---,0.00,VWS V14.00,2013-07-19 18:41:00,
2013-07-19 13:46:00,76.3,65.4,29.66,SSW,209,0.0,10.0,69,0.00,,---,0.00,VWS V14.00,2013-07-19 18:46:00,
2013-07-19 13:51:00,76.8,65.4,29.67,North,355,0.0,9.0,68,0.00,,---,0.00,VWS V14.00,2013-07-19 18:51:00,
2013-07-19 13:56:00,76.9,65.5,29.66,SW,233,9.0,10.0,68,0.00,,---,0.00,VWS V14.00,2013-07-19 18:56:00,
2013-07-19 14:01:00,77.3,65.9,29.66,West,261,1.0,11.0,68,0.00,,---,0.00,VWS V14.00,2013-07-19 19:01:00,
2013-07-19 14:06:00,77.5,65.3,29.67,NW,304,0.0,5.0,66,0.00,,---,0.00,VWS V14.00,2013-07-19 19:06:00,
2013-07-19 14:11:00,77.6,65.3,29.66,WNW,292,1.0,5.0,66,0.00,,---,0.00,VWS V14.00,2013-07-19 19:11:00,
2013-07-19 14:16:00,77.7,64.6,29.67,SW,219,9.0,10.0,64,0.00,,---,0.00,VWS V14.00,2013-07-19 19:16:00,
2013-07-19 14:21:00,77.5,64.8,29.67,NNE,12,2.0,12.0,65,0.00,,---,0.00,VWS V14.00,2013-07-19 19:21:00,
2013-07-19 14:26:00,77.3,64.6,29.67,West,264,4.0,12.0,65,0.00,,---,0.00,VWS V14.00,2013-07-19 19:26:00,
2013-07-19 14:31:00,77.3,64.6,29.67,West,267,2.0,12.0,65,0.00,,---,0.00,VWS V14.00,2013-07-19 19:31:00,
2013-07-19 14:36:00,77.3,65.5,29.67,SSW,192,3.0,6.0,67,0.00,,---,0.00,VWS V14.00,2013-07-19 19:36:00,
2013-07-19 14:41:00,77.2,65.0,29.67,SW,223,1.0,9.0,66,0.00,,---,0.00,VWS V14.00,2013-07-19 19:41:00,
2013-07-19 14:46:00,77.2,65.0,29.67,WNW,303,0.0,10.0,66,0.00,,---,0.00,VWS V14.00,2013-07-19 19:46:00,
2013-07-19 14:51:00,77.4,65.2,29.67,SE,137,4.0,5.0,66,0.00,,---,0.00,VWS V14.00,2013-07-19 19:51:00,
2013-07-19 14:56:00,77.6,64.5,29.67,NE,40,1.0,6.0,64,0.00,,---,0.00,VWS V14.00,2013-07-19 19:56:00,
2013-07-19 15:01:00,77.8,64.7,29.67,WNW,299,0.0,6.0,64,0.00,,---,0.00,VWS V14.00,2013-07-19 20:01:00,
2013-07-19 15:06:00,77.4,64.7,29.67,WNW,291,3.0,9.0,65,0.00,,---,0.00,VWS V14.00,2013-07-19 20:06:00,
2013-07-19 15:11:00,76.8,64.6,29.67,NNW,337,2.0,9.0,66,0.00,,---,0.00,VWS V14.00,2013-07-19 20:11:00,
2013-07-19 15:16:00,76.9,64.2,29.67,NW,311,0.0,9.0,65,0.00,,---,0.00,VWS V14.00,2013-07-19 20:16:00,
2013-07-19 15:21:00,77.1,63.1,29.68,WSW,248,7.0,11.0,62,0.00,,---,0.00,VWS V14.00,2013-07-19 20:21:00,
2013-07-19 15:26:00,77.4,63.8,29.68,South,180,2.0,11.0,63,0.00,,---,0.00,VWS V14.00,2013-07-19 20:26:00,
2013-07-19 15:31:00,77.4,63.4,29.68,SW,225,5.0,11.0,62,0.00,,---,0.00,VWS V14.00,2013-07-19 20:31:00,
2013-07-19 15:36:00,77.4,63.4,29.67,SW,235,2.0,8.0,62,0.00,,---,0.00,VWS V14.00,2013-07-19 20:36:00,
2013-07-19 15:41:00,77.8,64.7,29.68,WNW,302,3.0,10.0,64,0.00,,---,0.00,VWS V14.00,2013-07-19 20:41:00,
2013-07-19 15:46:00,78.1,63.6,29.67,NNW,333,0.0,10.0,61,0.00,,---,0.00,VWS V14.00,2013-07-19 20:46:00,
2013-07-19 15:51:00,77.9,62.9,29.68,SW,225,0.0,4.0,60,0.00,,---,0.00,VWS V14.00,2013-07-19 20:51:00,
2013-07-19 15:56:00,77.8,63.8,29.67,West,276,3.0,12.0,62,0.00,,---,0.00,VWS V14.00,2013-07-19 20:56:00,
2013-07-19 16:01:00,77.7,62.7,29.67,WNW,283,1.0,12.0,60,0.00,,---,0.00,VWS V14.00,2013-07-19 21:01:00,
2013-07-19 16:06:00,77.5,63.0,29.67,WSW,240,2.0,6.0,61,0.00,,---,0.00,VWS V14.00,2013-07-19 21:06:00,
2013-07-19 16:11:00,77.3,61.9,29.67,WSW,257,3.0,9.0,59,0.00,,---,0.00,VWS V14.00,2013-07-19 21:11:00,
2013-07-19 16:16:00,77.3,62.3,29.68,West,273,3.0,9.0,60,0.00,,---,0.00,VWS V14.00,2013-07-19 21:16:00,
2013-07-19 16:21:00,77.6,62.2,29.68,SSW,205,8.0,10.0,59,0.00,,---,0.00,VWS V14.00,2013-07-19 21:21:00,
2013-07-19 16:26:00,77.9,62.9,29.68,SW,225,7.0,11.0,60,0.00,,---,0.00,VWS V14.00,2013-07-19 21:26:00,
2013-07-19 16:31:00,78.3,62.8,29.69,WSW,243,0.0,11.0,59,0.00,,---,0.00,VWS V14.00,2013-07-19 21:31:00,
2013-07-19 16:36:00,77.9,61.5,29.69,SW,234,5.0,10.0,57,0.00,,---,0.00,VWS V14.00,2013-07-19 21:36:00,
2013-07-19 16:41:00,76.8,61.9,29.69,West,271,1.0,10.0,60,0.00,,---,0.00,VWS V14.00,2013-07-19 21:41:00,
2013-07-19 16:46:00,76.5,62.1,29.69,SW,225,0.0,11.0,61,0.00,,---,0.00,VWS V14.00,2013-07-19 21:46:00,
2013-07-19 16:51:00,76.1,61.2,29.68,SW,229,4.0,11.0,60,0.00,,---,0.00,VWS V14.00,2013-07-19 21:51:00,
2013-07-19 16:56:00,75.6,61.2,29.68,West,266,1.0,11.0,61,0.00,,---,0.00,VWS V14.00,2013-07-19 21:56:00,
2013-07-19 17:01:00,75.5,61.6,29.68,WSW,250,2.0,11.0,62,0.00,,---,0.00,VWS V14.00,2013-07-19 22:01:00,
2013-07-19 17:06:00,75.6,61.2,29.68,WNW,282,0.0,5.0,61,0.00,,---,0.00,VWS V14.00,2013-07-19 22:06:00,
2013-07-19 17:11:00,75.5,61.1,29.68,NW,319,3.0,10.0,61,0.00,,---,0.00,VWS V14.00,2013-07-19 22:11:00,
2013-07-19 17:16:00,75.9,61.0,29.68,SW,225,2.0,10.0,60,0.00,,---,0.00,VWS V14.00,2013-07-19 22:16:00,
2013-07-19 17:21:00,76.5,61.1,29.68,SW,227,3.0,6.0,59,0.00,,---,0.00,VWS V14.00,2013-07-19 22:21:00,
2013-07-19 17:26:00,76.8,60.9,29.68,WSW,250,0.0,9.0,58,0.00,,---,0.00,VWS V14.00,2013-07-19 22:26:00,
2013-07-19 17:31:00,76.8,61.4,29.68,SSW,200,2.0,9.0,59,0.00,,---,0.00,VWS V14.00,2013-07-19 22:31:00,
2013-07-19 17:36:00,76.9,61.5,29.68,WNW,286,0.0,4.0,59,0.00,,---,0.00,VWS V14.00,2013-07-19 22:36:00,
2013-07-19 17:41:00,76.9,60.5,29.68,NNE,26,0.0,7.0,57,0.00,,---,0.00,VWS V14.00,2013-07-19 22:41:00,
2013-07-19 17:46:00,76.8,60.9,29.69,NNW,348,0.0,7.0,58,0.00,,---,0.00,VWS V14.00,2013-07-19 22:46:00,
2013-07-19 17:51:00,77.1,61.7,29.69,South,188,4.0,4.0,59,0.00,,---,0.00,VWS V14.00,2013-07-19 22:51:00,
2013-07-19 17:56:00,77.4,61.5,29.69,West,264,0.0,6.0,58,0.00,,---,0.00,VWS V14.00,2013-07-19 22:56:00,
2013-07-19 18:01:00,77.4,61.0,29.69,SSW,211,6.0,6.0,57,0.00,,---,0.00,VWS V14.00,2013-07-19 23:01:00,
2013-07-19 18:06:00,77.3,61.9,29.68,WSW,250,0.0,3.0,59,0.00,,---,0.00,VWS V14.00,2013-07-19 23:06:00,
2013-07-19 18:11:00,77.1,61.7,29.68,SW,236,1.0,10.0,59,0.00,,---,0.00,VWS V14.00,2013-07-19 23:11:00,
2013-07-19 18:16:00,76.9,61.0,29.68,WNW,282,0.0,10.0,58,0.00,,---,0.00,VWS V14.00,2013-07-19 23:16:00,
2013-07-19 18:21:00,76.6,60.7,29.68,SW,232,1.0,7.0,58,0.00,,---,0.00,VWS V14.00,2013-07-19 23:21:00,
2013-07-19 18:26:00,76.4,61.0,29.68,SSW,202,2.0,7.0,59,0.00,,---,0.00,VWS V14.00,2013-07-19 23:26:00,
2013-07-19 18:31:00,76.3,60.5,29.68,WSW,247,1.0,7.0,58,0.00,,---,0.00,VWS V14.00,2013-07-19 23:31:00,
2013-07-19 18:36:00,76.2,58.9,29.68,SSW,194,5.0,7.0,55,0.00,,---,0.00,VWS V14.00,2013-07-19 23:36:00,
2013-07-19 18:41:00,75.8,56.9,29.69,SW,233,7.0,13.0,52,0.00,,---,0.00,VWS V14.00,2013-07-19 23:41:00,
2013-07-19 18:46:00,75.4,57.6,29.69,WNW,296,2.0,13.0,54,0.00,,---,0.00,VWS V14.00,2013-07-19 23:46:00,
2013-07-19 18:51:00,75.3,58.0,29.69,SW,232,1.0,6.0,55,0.00,,---,0.00,VWS V14.00,2013-07-19 23:51:00,
2013-07-19 18:56:00,75.2,58.4,29.69,West,267,2.0,6.0,56,0.00,,---,0.00,VWS V14.00,2013-07-19 23:56:00,
2013-07-19 19:01:00,75.0,57.8,29.69,SW,236,3.0,8.0,55,0.00,,---,0.00,VWS V14.00,2013-07-20 00:01:00,
2013-07-19 19:06:00,74.9,58.2,29.69,West,267,0.0,2.0,56,0.00,,---,0.00,VWS V14.00,2013-07-20 00:06:00,
2013-07-19 19:11:00,74.9,58.7,29.69,WSW,238,0.0,5.0,57,0.00,,---,0.00,VWS V14.00,2013-07-20 00:11:00,
2013-07-19 19:16:00,74.8,58.1,29.69,WSW,246,3.0,5.0,56,0.00,,---,0.00,VWS V14.00,2013-07-20 00:16:00,
2013-07-19 19:21:00,74.6,58.9,29.70,WSW,246,0.0,1.0,58,0.00,,---,0.00,VWS V14.00,2013-07-20 00:21:00,
2013-07-19 19:26:00,74.1,58.4,29.70,WSW,249,0.0,3.0,58,0.00,,---,0.00,VWS V14.00,2013-07-20 00:26:00,
2013-07-19 19:31:00,73.6,57.9,29.70,WNW,283,1.0,5.0,58,0.00,,---,0.00,VWS V14.00,2013-07-20 00:31:00,
2013-07-19 19:36:00,73.3,58.6,29.70,WNW,292,0.0,1.0,60,0.00,,---,0.00,VWS V14.00,2013-07-20 00:36:00,
2013-07-19 19:41:00,73.0,59.7,29.70,WNW,291,0.0,2.0,63,0.00,,---,0.00,VWS V14.00,2013-07-20 00:41:00,
2013-07-19 19:46:00,72.6,58.8,29.70,WNW,291,0.0,3.0,62,0.00,,---,0.00,VWS V14.00,2013-07-20 00:46:00,
2013-07-19 19:51:00,72.2,58.9,29.70,WNW,291,0.0,0.0,63,0.00,,---,0.00,VWS V14.00,2013-07-20 00:51:00,
2013-07-19 19:56:00,71.8,58.1,29.70,SW,226,0.0,4.0,62,0.00,,---,0.00,VWS V14.00,2013-07-20 00:56:00,
2013-07-19 20:01:00,71.5,57.8,29.70,NNW,333,0.0,4.0,62,0.00,,---,0.00,VWS V14.00,2013-07-20 01:01:00,
2013-07-19 20:06:00,71.2,58.0,29.70,NNW,333,0.0,0.0,63,0.00,,---,0.00,VWS V14.00,2013-07-20 01:06:00,
2013-07-19 20:11:00,70.8,58.0,29.70,NNW,333,0.0,1.0,64,0.00,,---,0.00,VWS V14.00,2013-07-20 01:11:00,
2013-07-19 20:16:00,70.4,57.7,29.70,NNW,333,0.0,1.0,64,0.00,,---,0.00,VWS V14.00,2013-07-20 01:16:00,
2013-07-19 20:21:00,70.0,58.1,29.70,NNW,333,0.0,0.0,66,0.00,,---,0.00,VWS V14.00,2013-07-20 01:21:00,
2013-07-19 20:26:00,69.7,57.8,29.70,NNW,333,0.0,0.0,66,0.00,,---,0.00,VWS V14.00,2013-07-20 01:26:00,
2013-07-19 20:31:00,69.3,58.7,29.70,NNW,333,0.0,0.0,69,0.00,,---,0.00,VWS V14.00,2013-07-20 01:31:00,
2013-07-19 20:36:00,68.8,59.4,29.70,NNW,333,0.0,0.0,72,0.00,,---,0.00,VWS V14.00,2013-07-20 01:36:00,
2013-07-19 20:41:00,68.1,59.1,29.70,NNW,333,0.0,0.0,73,0.00,,---,0.00,VWS V14.00,2013-07-20 01:41:00,
2013-07-19 20:46:00,67.4,58.8,29.70,NNW,333,0.0,0.0,74,0.00,,---,0.00,VWS V14.00,2013-07-20 01:46:00,
2013-07-19 20:51:00,66.6,58.8,29.70,NNW,333,0.0,0.0,76,0.00,,---,0.00,VWS V14.00,2013-07-20 01:51:00,
2013-07-19 20:56:00,66.0,58.6,29.70,NNW,333,0.0,0.0,77,0.00,,---,0.00,VWS V14.00,2013-07-20 01:56:00,
2013-07-19 21:01:00,65.4,58.4,29.70,NNW,333,0.0,0.0,78,0.00,,---,0.00,VWS V14.00,2013-07-20 02:01:00,
2013-07-19 21:06:00,64.9,58.2,29.70,NNW,333,0.0,0.0,79,0.00,,---,0.00,VWS V14.00,2013-07-20 02:06:00,
2013-07-19 21:11:00,64.5,58.2,29.70,NNW,333,0.0,0.0,80,0.00,,---,0.00,VWS V14.00,2013-07-20 02:11:00,
2013-07-19 21:16:00,64.0,58.1,29.71,NNW,333,0.0,0.0,81,0.00,,---,0.00,VWS V14.00,2013-07-20 02:16:00,
2013-07-19 21:21:00,63.6,58.0,29.71,NNW,333,0.0,0.0,82,0.00,,---,0.00,VWS V14.00,2013-07-20 02:21:00,
2013-07-19 21:26:00,63.2,57.6,29.71,NNW,333,0.0,0.0,82,0.00,,---,0.00,VWS V14.00,2013-07-20 02:26:00,
2013-07-19 21:31:00,62.9,57.7,29.71,NNW,333,0.0,0.0,83,0.00,,---,0.00,VWS V14.00,2013-07-20 02:31:00,
2013-07-19 21:36:00,62.5,57.3,29.71,NNW,333,0.0,0.0,83,0.00,,---,0.00,VWS V14.00,2013-07-20 02:36:00,
2013-07-19 21:41:00,62.2,57.3,29.71,NNW,333,0.0,0.0,84,0.00,,---,0.00,VWS V14.00,2013-07-20 02:41:00,
2013-07-19 21:46:00,62.0,57.1,29.71,NNW,333,0.0,0.0,84,0.00,,---,0.00,VWS V14.00,2013-07-20 02:46:00,
2013-07-19 21:51:00,61.7,56.8,29.72,NNW,333,0.0,0.0,84,0.00,,---,0.00,VWS V14.00,2013-07-20 02:51:00,
2013-07-19 21:56:00,61.6,56.7,29.72,NNW,333,0.0,0.0,84,0.00,,---,0.00,VWS V14.00,2013-07-20 02:56:00,
2013-07-19 22:01:00,61.5,57.0,29.72,NNW,333,0.0,0.0,85,0.00,,---,0.00,VWS V14.00,2013-07-20 03:01:00,
2013-07-19 22:06:00,61.4,56.9,29.72,NNW,333,0.0,0.0,85,0.00,,---,0.00,VWS V14.00,2013-07-20 03:06:00,
2013-07-19 22:11:00,61.3,57.1,29.72,NNW,333,0.0,0.0,86,0.00,,---,0.00,VWS V14.00,2013-07-20 03:11:00,
2013-07-19 22:16:00,61.2,57.0,29.72,NNW,333,0.0,0.0,86,0.00,,---,0.00,VWS V14.00,2013-07-20 03:16:00,
2013-07-19 22:21:00,61.1,56.9,29.72,NNW,333,0.0,0.0,86,0.00,,---,0.00,VWS V14.00,2013-07-20 03:21:00,
2013-07-19 22:26:00,61.0,56.8,29.72,NNW,333,0.0,0.0,86,0.00,,---,0.00,VWS V14.00,2013-07-20 03:26:00,
2013-07-19 22:31:00,61.0,57.1,29.72,NNW,333,0.0,0.0,87,0.00,,---,0.00,VWS V14.00,2013-07-20 03:31:00,
2013-07-19 22:36:00,61.0,56.8,29.72,NNW,333,0.0,1.0,86,0.00,,---,0.00,VWS V14.00,2013-07-20 03:36:00,
2013-07-19 22:41:00,61.0,56.8,29.72,NNW,333,0.0,1.0,86,0.00,,---,0.00,VWS V14.00,2013-07-20 03:41:00,
2013-07-19 22:46:00,61.0,56.8,29.72,NNW,333,0.0,1.0,86,0.00,,---,0.00,VWS V14.00,2013-07-20 03:46:00,
2013-07-19 22:51:00,61.0,56.8,29.72,NNW,333,0.0,0.0,86,0.00,,---,0.00,VWS V14.00,2013-07-20 03:51:00,
2013-07-19 22:56:00,61.1,56.9,29.72,NNW,333,0.0,0.0,86,0.00,,---,0.00,VWS V14.00,2013-07-20 03:56:00,
2013-07-19 23:01:00,61.2,56.7,29.72,NNW,333,0.0,1.0,85,0.00,,---,0.00,VWS V14.00,2013-07-20 04:01:00,
2013-07-19 23:02:00,61.2,56.7,29.72,NNW,333,0.0,1.0,85,0.00,,---,0.00,VWS V14.00,2013-07-20 04:02:00,
2013-07-19 23:07:00,61.3,57.1,29.72,NNW,333,0.0,0.0,86,0.00,,---,0.00,VWS V14.00,2013-07-20 04:07:00,
2013-07-19 23:12:00,61.3,56.8,29.72,NNW,333,0.0,1.0,85,0.00,,---,0.00,VWS V14.00,2013-07-20 04:12:00,
2013-07-19 23:17:00,61.3,57.1,29.72,NNW,333,0.0,1.0,86,0.00,,---,0.00,VWS V14.00,2013-07-20 04:17:00,
2013-07-19 23:22:00,61.2,57.0,29.72,NNW,333,0.0,1.0,86,0.00,,---,0.00,VWS V14.00,2013-07-20 04:22:00,
2013-07-19 23:27:00,61.2,57.0,29.72,NNW,333,0.0,1.0,86,0.00,,---,0.00,VWS V14.00,2013-07-20 04:27:00,
2013-07-19 23:33:00,61.3,57.1,29.72,NNW,333,0.0,1.0,86,0.00,,---,0.00,VWS V14.00,2013-07-20 04:33:00,
2013-07-19 23:38:00,61.5,57.6,29.72,NNW,333,0.0,0.0,87,0.00,,---,0.00,VWS V14.00,2013-07-20 04:38:00,
2013-07-19 23:43:00,61.6,57.7,29.72,NNW,333,0.0,0.0,87,0.00,,---,0.00,VWS V14.00,2013-07-20 04:43:00,
2013-07-19 23:48:00,61.8,57.6,29.72,NNW,333,0.0,0.0,86,0.00,,---,0.00,VWS V14.00,2013-07-20 04:48:00,
2013-07-19 23:53:00,62.0,57.8,29.72,NNW,333,0.0,1.0,86,0.00,,---,0.00,VWS V14.00,2013-07-20 04:53:00,
2013-07-19 23:58:00,62.5,58.3,29.72,NNW,333,0.0,1.0,86,0.00,,---,0.00,VWS V14.00,2013-07-20 04:58:00,